EW5037 Weather Reports


Display with metric or nautical units.
time (UTC)temp
F
wind
direction
speed
MPH
gust
MPH
rain 1hr
in
rain 24hr
in
rain mn
in
humidity
%
barometer
mb
20260505101425 65 180 0.0 0.0 0.00 0.00 0.00 76 1013.4
20260505100339 65 338 0.0 0.0 0.00 0.00 0.00 75 1013.4
20260505095726 65 315 0.0 0.0 0.00 0.00 0.00 75 1013.2
20260505094213 65 338 0.0 2.0 0.00 0.00 0.00 75 1013.2
20260505093123 65 315 0.0 0.0 0.00 0.00 0.00 75 1013.3
20260505092039 65 293 0.0 0.0 0.00 0.00 0.00 75 1013.1
20260505090950 65 315 0.0 0.0 0.00 0.00 0.00 75 1013.1
20260505085903 66 0 0.0 0.0 0.00 0.00 0.00 75 1013.2
20260505084815 66 23 0.0 0.0 0.00 0.00 0.00 75 1013.2
20260505083736 65 293 0.0 0.0 0.00 0.00 0.00 74 1013.2
20260505083129 66 338 0.0 0.0 0.00 0.00 0.00 74 1013.2
20260505081601 66 23 0.0 0.0 0.00 0.00 0.00 74 1013.5
20260505080512 65 158 0.0 0.0 0.00 0.00 0.00 74 1013.5
20260505075427 65 225 0.0 0.0 0.00 0.00 0.00 73 1013.2
20260505074343 66 158 0.0 0.0 0.00 0.00 0.00 73 1013.2
20260505073302 66 135 0.0 0.0 0.00 0.00 0.00 72 1013.2
20260505072650 66 158 0.0 0.0 0.00 0.00 0.00 71 1013.2
20260505071122 67 158 0.0 0.0 0.00 0.00 0.00 70 1013.6
20260505070037 67 135 0.0 0.0 0.00 0.00 0.00 70 1014.3
20260505064951 67 113 0.0 0.0 0.00 0.00 0.00 69 1014.3
20260505063906 68 113 0.0 0.0 0.00 0.00 0.00 68 1014.6
20260505062825 68 135 1.0 2.0 0.00 0.00 0.00 68 1014.6
20260505061732 69 225 2.0 4.0 0.00 0.00 0.00 67 1014.4
20260505060648 69 203 3.0 5.0 0.00 0.00 0.00 67 1014.4
20260505055601 69 203 2.0 4.0 0.00 0.00 0.00 66 1014.6
20260505054517 69 158 2.0 3.0 0.00 0.00 0.00 66 1014.6
20260505053427 69 135 2.0 3.0 0.00 0.00 0.00 66 1014.3
20260505052347 69 158 2.0 4.0 0.00 0.00 0.00 66 1014.3
20260505051257 69 135 3.0 5.0 0.00 0.00 0.00 66 1014.6
20260505050652 69 135 3.0 5.0 0.00 0.00 0.00 65 1014.6
20260505041255 70 113 3.0 5.0 0.00 0.00 0.00 63 1014.7
20260505035734 70 135 4.0 7.0 0.00 0.00 0.00 63 1015.0
20260505035605 70 113 4.0 6.0 0.00 0.00 0.00 62 1015.0
20260505033604 70 135 3.0 6.0 0.00 0.00 0.00 61 1014.9
20260505032519 70 158 4.0 7.0 0.00 0.00 0.00 59 1014.9
20260505031438 70 158 4.0 7.0 0.00 0.00 0.00 59 1015.1
20260505030346 70 135 3.0 6.0 0.00 0.00 0.00 59 1015.1
20260505025301 69 135 3.0 4.0 0.00 0.00 0.00 59 1015.1
20260505024219 70 135 3.0 5.0 0.00 0.00 0.00 59 1015.1
20260505023132 70 135 3.0 5.0 0.00 0.00 0.00 58 1014.9
20260505023005 70 135 2.0 4.0 0.00 0.00 0.00 58 1014.9
20260505021007 70 338 4.0 5.0 0.00 0.00 0.00 58 1014.9
20260505020850 70 158 4.0 5.0 0.00 0.00 0.00 57 1014.4
20260505014843 70 338 3.0 5.0 0.00 0.00 0.00 57 1014.4
20260505013747 70 158 3.0 6.0 0.00 0.00 0.00 57 1014.6
20260505012707 70 135 3.0 4.0 0.00 0.00 0.00 57 1014.6
20260505011611 70 158 3.0 4.0 0.00 0.00 0.00 57 1014.7
20260505011516 71 135 3.0 6.0 0.00 0.00 0.00 56 1014.7
20260505005439 71 158 3.0 5.0 0.00 0.00 0.00 56 1014.9
20260505004358 71 135 4.0 6.0 0.00 0.00 0.00 55 1014.9
20260505003746 71 135 3.0 4.0 0.00 0.00 0.00 55 1014.9
20260505002230 72 113 4.0 6.0 0.00 0.00 0.00 54 1014.9
20260505001142 72 158 4.0 7.0 0.00 0.00 0.00 53 1015.1
20260505000543 72 158 5.0 9.0 0.00 0.00 0.00 52 1015.4
20260504235008 73 158 6.0 9.0 0.00 0.00 0.00 51 1015.4
20260504233923 73 135 5.0 8.0 0.00 0.00 0.00 51 1015.5
20260504233305 73 158 7.0 11.0 0.00 0.00 0.00 49 1015.5
20260504231746 73 158 6.0 9.0 0.00 0.00 0.00 49 1015.7
20260504231142 73 135 5.0 8.0 0.00 0.00 0.00 49 1015.7
20260504230053 73 113 6.0 9.0 0.00 0.00 0.00 48 1015.6
20260504224528 74 158 6.0 10.0 0.00 0.00 0.00 47 1015.6
20260504223440 74 113 7.0 9.0 0.00 0.00 0.00 47 1016.0
20260504222354 74 158 5.0 9.0 0.00 0.00 0.00 46 1016.0
20260504221309 74 90 5.0 8.0 0.00 0.00 0.00 47 1016.0
20260504220223 74 225 6.0 9.0 0.00 0.00 0.00 46 1016.0
20260504215630 74 135 6.0 9.0 0.00 0.00 0.00 46 1016.0
20260504214050 74 135 7.0 10.0 0.00 0.00 0.00 45 1015.7
20260504213003 75 180 7.0 9.0 0.00 0.00 0.00 44 1015.7
20260504212838 75 180 7.0 14.0 0.00 0.00 0.00 43 1016.3
20260504210833 76 135 7.0 12.0 0.00 0.00 0.00 41 1016.3
20260504210227 76 180 7.0 13.0 0.00 0.00 0.00 39 1016.6
20260504204707 76 135 6.0 9.0 0.00 0.00 0.00 39 1016.6
20260504203617 76 158 5.0 9.0 0.00 0.00 0.00 38 1016.9
20260504202528 76 135 5.0 13.0 0.00 0.00 0.00 38 1016.9
20260504201444 76 113 6.0 12.0 0.00 0.00 0.00 36 1017.7
20260504200358 76 135 5.0 6.0 0.00 0.00 0.00 36 1017.7
20260504195753 76 225 6.0 11.0 0.00 0.00 0.00 35 1017.9
20260504194711 75 68 7.0 9.0 0.00 0.00 0.00 34 1017.9
20260504193138 76 158 7.0 13.0 0.00 0.00 0.00 34 1018.1
20260504192053 75 135 8.0 11.0 0.00 0.00 0.00 36 1018.1
20260504191008 76 113 6.0 8.0 0.00 0.00 0.00 36 1018.1
20260504185923 76 158 7.0 12.0 0.00 0.00 0.00 36 1018.3
20260504185154 75 135 6.0 12.0 0.00 0.00 0.00 36 1018.5
20260504184839 75 90 6.0 12.0 0.00 0.00 0.00 37 1018.3
20260504182704 75 135 7.0 12.0 0.00 0.00 0.00 38 1018.5
20260504181621 75 158 6.0 11.0 0.00 0.00 0.00 38 1019.0
20260504180535 75 135 6.0 6.0 0.00 0.00 0.00 38 1019.0
20260504175931 75 135 7.0 17.0 0.00 0.00 0.00 38 1018.9
20260504174402 74 180 6.0 9.0 0.00 0.00 0.00 40 1018.9
20260504173323 74 180 6.0 13.0 0.00 0.00 0.00 41 1018.8
20260504172233 74 113 7.0 6.0 0.00 0.00 0.00 41 1018.8
20260504171146 74 158 8.0 17.0 0.00 0.00 0.00 40 1019.1
20260504150233 71 135 6.0 9.0 0.00 0.00 0.00 50 1018.9
20260504140844 68 180 3.0 10.0 0.00 0.00 0.00 62 1019.4
20260504130404 63 315 0.0 0.0 0.00 0.00 0.00 76 1019.3